Location: *
(39.8042°N, 89.4611°W)
Time: 11:47:01
(UTC+00:00)

Daily predictions for brighter satellites

Satellite Brightness Start Highest point End
(mag) Time Altitude Azimuth Time Altitude Azimuth Time Altitude Azimuth
Cosmos 1315 Rocket 3.2 12:02:45 10° SSW 12:06:25 39° WNW 12:10:06 10° N
Lacrosse 4 Rocket 3.6 12:11:22 11° NW 12:11:22 11° NW 12:12:01 10° NNW
Cosmos 1953 Rocket 3.5 12:07:05 10° N 12:11:26 80° W 12:15:48 10° S
SMAP 3.5 12:06:47 10° NNE 12:11:26 67° ESE 12:16:03 10° S
YAOGAN 6 2.9 12:09:40 10° N 12:13:12 43° WNW 12:16:41 10° SW
ATLAS 5 CENTAUR R/B 3.5 12:12:26 14° W 12:14:19 20° SW 12:19:21 10° S
Cosmos 1346 Rocket 3.5 12:10:47 10° NNW 12:14:19 31° W 12:17:51 10° SSW
Cosmos 1606 Rocket 4.0 12:13:14 10° SSW 12:17:15 38° WNW 12:21:19 10° N
Cosmos 1441 Rocket 4.4 12:13:46 10° N 12:17:33 45° ENE 12:21:16 10° SSE
ERBS 3.4 12:16:23 16° W 12:18:13 25° NW 12:20:59 10° NNE
BREEZE-M (TANK) 1.7 12:18:07 18° WNW 12:19:16 41° SW 12:21:27 10° SE
ASTRO F (AKARI) 4.5 12:15:44 10° N 12:19:24 74° WNW 12:22:54 10° SSW
ATLAS 3B R/B 3.3 12:13:49 10° SSW 12:20:13 61° ESE 12:26:45 10° NE
Cosmos 1892 2.7 12:20:55 10° N 12:24:47 88° W 12:28:39 10° S
NOAA 12 4.2 12:19:49 10° NNE 12:25:09 89° E 12:30:28 10° SSW
Cosmos 1408 3.1 12:21:59 10° N 12:25:33 63° E 12:29:09 10° SSE
Radarsat Rocket 4.5 12:19:57 10° NNE 12:27:23 83° ESE 12:33:50 10° SSW
SWARM A 4.3 12:25:36 10° N 12:28:56 81° E 12:32:14 10° S
NOAA 11 4.4 12:25:01 10° NNE 12:30:29 77° ESE 12:35:54 10° S
Iridium 4 Rocket 4.5 12:28:53 10° SSE 12:34:35 62° E 12:40:26 10° N
PAYLOAD B 4.3 12:31:41 10° N 12:37:14 66° WNW 12:42:47 10° SSW
GEOS 3 Rocket 3.7 12:34:44 10° SSE 12:40:04 78° SW 12:45:30 10° NW
Cosmos 1809 Rocket 4.5 12:33:55 10° N 12:40:07 78° W 12:46:17 10° S
Cosmos 1689 Rocket 4.1 12:40:40 10° WSW 12:41:54 12° W 12:43:09 10° WNW
AQUARIUS 4.2 12:37:39 10° N 12:42:07 65° WNW 12:46:33 10° SSW
Cosmos 2266 Rocket 4.0 12:36:27 10° N 12:42:31 88° W 12:48:34 10° S
Cosmos 2098 Rocket 4.4 12:39:44 10° NNW 12:43:32 22° W 12:46:47 10° SW
AQUARIUS 4.4 23:35:23 10° S 23:39:52 81° WSW 23:44:23 10° NNW
Cosmos 1680 Rocket 3.5 23:36:04 10° NNW 23:41:18 73° ENE 23:46:29 10° SSE
Cosmos 1758 Rocket 4.3 23:39:31 10° SSE 23:43:27 32° E 23:47:27 10° NNE
NOSS 2-1 (E) 4.1 23:40:26 10° SW 23:43:37 40° NW 23:46:52 10° NNE
COSMO-SKYMED 1 2.9 23:40:25 10° NNE 23:44:37 46° E 23:48:46 10° S
CZ-2C R/B 4.4 23:43:04 10° ENE 23:45:21 12° E 23:47:38 10° ESE
MOS 1 Rocket 3.6 23:41:27 10° NNE 23:45:27 37° E 23:49:31 10° SSE
Cosmos 1092 Rocket 4.0 23:41:20 10° S 23:47:26 65° E 23:53:31 10° NNE
Cosmos 1689 Rocket 3.8 23:49:18 10° ENE 23:51:01 15° E 23:52:44 10° SE
Cosmos 1939 Rocket 2.8 23:47:59 10° SSE 23:52:02 66° ENE 23:56:03 10° N
Helios 1A Rocket 4.4 23:51:16 10° ESE 23:53:54 17° ENE 23:56:33 10° NNE
